[[[{"header":{"parameterUnit":"kt","parameterCategory":2,"dx":1,"dy":1,"la1":30.253999710083008,"la2":30.299108505249023,"lo1":-89.0895004272461,"lo2":-89.04439544677734,"nx":28,"ny":28,"refTime":"2022-10-22T21:00:00:Z","depth":0,"parameterNumber":1,"parameterNumberName":"U-component_of_WINDS"},"data":[-6.165,-6.1824,-6.192,-6.2164,-6.2293,-6.2478,-6.2576,-6.2713,-6.2848,-6.3083,-6.3237,-6.3356,-6.3532,-6.3742,-6.3917,-6.3967,-6.4034,-6.4025,-6.4085,-6.4033,-6.4032,-6.4032,-6.3995,-6.4038,-6.4038,-6.4125,-6.4126,-6.4126,-6.1605,-6.1732,-6.1889,-6.2106,-6.2243,-6.231,-6.249,-6.2601,-6.2766,-6.2934,-6.309,-6.3307,-6.3493,-6.3677,-6.3873,-6.3961,-6.4005,-6.4007,-6.4002,-6.4029,-6.3977,-6.3937,-6.3968,-6.3968,-6.3968,-6.3968,-6.3968,-6.3968,-6.1548,-6.1648,-6.1836,-6.2008,-6.2145,-6.2291,-6.2405,-6.2547,-6.2704,-6.2917,-6.3005,-6.3195,-6.3384,-6.367,-6.3791,-6.3945,-6.3961,-6.3996,-6.4005,-6.401,-6.4003,-6.3864,-6.3984,-6.3984,-6.3985,-6.3985,-6.3985,0,-6.1537,-6.161,-6.1767,-6.1953,-6.2085,-6.2239,-6.2398,-6.2472,-6.2665,-6.2788,-6.2975,-6.3099,-6.3348,-6.3537,-6.3743,-6.3864,-6.3949,-6.3969,-6.3993,-6.3952,-6.3888,-6.3924,-6.3834,-6.3964,-6.3965,-6.3965,-6.3965,-6.3965,-6.1487,-6.1592,-6.1836,-6.1933,-6.2043,-6.2199,-6.2313,-6.2475,-6.2589,-6.2811,-6.2894,-6.3085,-6.3246,-6.3533,-6.3701,-6.3888,-6.3931,-6.397,-6.396,-6.3917,-6.3933,-6.3924,-6.3937,-6.3968,-6.3967,-6.3967,-6.3967,0,-6.145,-6.1607,-6.1802,-6.2034,-6.2096,-6.22,-6.24,-6.251,-6.2636,-6.2805,-6.2854,-6.3053,-6.3236,-6.3399,-6.3642,-6.3722,-6.3902,-6.3939,-6.3838,-6.3854,-6.3905,-6.3898,-6.4044,-6.4072,-6.4029,-6.4029,-6.4029,0,-6.1469,-6.1602,-6.1829,-6.1934,-6.2089,-6.2248,-6.2398,-6.2521,-6.2685,-6.2819,-6.294,-6.3064,-6.3253,-6.3403,-6.3521,-6.3698,-6.3743,-6.3815,-6.3845,-6.3804,-6.3795,-6.3868,-6.3865,-6.3908,-6.3907,-6.3907,-6.3906,0,-6.1393,-6.1671,-6.1843,-6.1932,-6.2193,-6.2272,-6.2385,-6.2569,-6.2679,-6.2849,-6.2923,-6.3111,-6.3214,-6.3359,-6.3508,-6.3495,-6.3728,-6.3741,-6.3801,-6.3797,-6.3843,-6.3838,-6.3927,-6.3905,-6.3904,-6.3904,-6.3904,0,-6.1433,-6.1597,-6.1822,-6.2043,-6.2109,-6.2224,-6.2417,-6.2552,-6.2738,-6.2819,-6.2955,-6.3055,-6.3221,-6.3223,-6.3456,-6.3397,-6.3492,-6.3577,-6.3584,-6.3608,-6.3604,-6.3632,-6.3701,-6.3714,-6.3632,-6.363,-6.3628,0,-6.1303,-6.1572,-6.1709,-6.1921,-6.2067,-6.2191,-6.2323,-6.2482,-6.2601,-6.2746,-6.2879,-6.3043,-6.3078,-6.3152,-6.3246,-6.339,-6.3468,-6.3385,-6.3595,-6.3601,-6.354,-6.3606,-6.3574,-6.3667,-6.3601,-6.3604,-6.3606,0,-6.1222,-6.1535,-6.1563,-6.1671,-6.1906,-6.203,-6.218,-6.2376,-6.2464,-6.2631,-6.2762,-6.2997,-6.3034,-6.3154,-6.3255,-6.3344,-6.3421,-6.3372,-6.3379,-6.3375,-6.3601,-6.357,-6.3585,-6.347,-6.3473,-6.3476,-6.3584,0,-6.1246,-6.14,-6.1483,-6.1715,-6.1836,-6.1977,-6.2146,-6.2252,-6.2336,-6.2457,-6.2653,-6.2828,-6.303,-6.309,-6.3173,-6.3324,-6.3325,-6.3362,-6.3374,-6.3415,-6.3456,-6.3472,-6.33,-6.3302,-6.3303,-6.3304,0,0,-6.1083,-6.1307,-6.1452,-6.1601,-6.1711,-6.1837,-6.1973,-6.2097,-6.2342,-6.2417,-6.2426,-6.278,-6.2921,-6.3142,-6.3168,-6.325,-6.3293,-6.3271,-6.3394,-6.3404,-6.3413,-6.3453,-6.3467,-6.3306,-6.3306,-6.3307,-6.3307,0,-6.1126,-6.1262,-6.1393,-6.1527,-6.1729,-6.185,-6.1881,-6.2105,-6.2189,-6.238,-6.2483,-6.2621,-6.2899,-6.3036,-6.3142,-6.3249,-6.332,-6.3298,-6.3298,-6.34,-6.3408,-6.3415,-6.3455,-6.3467,-6.331,-6.331,-6.331,0,-6.1076,-6.1238,-6.1319,-6.1574,-6.1708,-6.1856,-6.1911,-6.2064,-6.2177,-6.2308,-6.2496,-6.2616,-6.2813,-6.2998,-6.3088,-6.3099,-6.3334,-6.3289,-6.3287,-6.33,-6.3408,-6.3416,-6.3424,-6.3318,-6.3317,-6.3316,0,0,-6.109,-6.1233,-6.1458,-6.1596,-6.1673,-6.1855,-6.1951,-6.2043,-6.2215,-6.2284,-6.2439,-6.2605,-6.2769,-6.2873,-6.3036,-6.3215,-6.327,-6.3283,-6.3283,-6.3282,-6.3294,-6.3401,-6.341,-6.3314,-6.3314,-6.3314,0,0,-6.1097,-6.1362,-6.1414,-6.1595,-6.1754,-6.1986,-6.2065,-6.2136,-6.2299,-6.2301,-6.2468,-6.2519,-6.2696,-6.281,-6.2755,-6.3044,-6.3053,-6.307,-6.2962,-6.2964,-6.2964,-6.2933,-6.2836,0,0,0,0,0,-6.1226,-6.1329,-6.1374,-6.1429,-6.1753,-6.196,-6.2004,-6.2141,-6.2144,-6.2204,-6.2346,-6.2414,-6.2815,-6.277,-6.2824,-6.2883,-6.328,-6.3286,-6.3292,-6.3197,-6.3197,-6.3197,0,0,0,0,0,0,-6.1249,-6.1316,-6.1372,-6.1605,-6.1679,-6.1958,-6.1994,-6.2035,-6.2142,-6.2152,-6.2384,-6.2421,-6.2544,-6.2752,-6.2799,-6.2852,-6.282,-6.3283,-6.3288,-6.3292,-6.3197,-6.3197,-6.3197,0,0,0,0,0,-6.1268,-6.1322,-6.1805,-6.1605,-6.1669,-6.1877,-6.1991,-6.2026,-6.2111,-6.2329,-6.2368,-6.2205,-6.2542,-6.2591,-6.2781,-6.2827,-6.2789,-6.2806,-6.3286,-6.329,-6.3293,-6.3197,0,0,0,0,0,0,-6.1282,-6.1356,-6.1821,-6.1846,-6.1575,-6.1865,-6.1914,-6.2017,-6.2285,-6.2324,-6.2157,-6.2162,-6.2542,-6.258,-6.2617,-6.2811,-6.2764,-6.2781,-6.2792,-6.3289,-6.3292,-6.3295,0,0,0,0,0,0,-6.1328,-6.1376,-6.1834,-6.1789,-6.181,-6.1852,-6.1896,-6.2078,-6.2286,-6.2099,-6.2111,-6.2156,-6.2487,-6.2572,-6.2602,-6.2879,-6.2744,-6.2761,-6.2772,-6.2779,-6.3291,-6.3294,0,0,0,0,0,0,-6.1351,-6.1393,-6.1783,-6.1799,-6.1818,-6.2108,-6.2015,-6.234,-6.2244,-6.2085,-6.224,-6.2238,-6.2478,-6.2511,-6.2591,-6.2855,-6.2873,-6.2745,-6.2756,-6.2764,-6.2769,0,0,0,0,0,0,0,-6.137,-6.1058,-6.1672,-6.1808,-6.1824,-6.2076,-6.2083,-6.209,-6.2244,-6.2242,-6.224,-6.2239,-6.2651,-6.2669,-6.2687,-6.2835,0,0,-6.2743,-6.2751,0,0,0,0,0,0,0,0,-6.1044,-6.1055,-6.1673,-6.1678,-6.1683,-6.2077,-6.2083,-6.2089,-6.2244,-6.2242,-6.2241,-6.2239,-6.2656,-6.267,-6.2685,0,0,0,0,0,0,0,0,0,0,0,0,0,0,0,-6.1674,-6.1678,0,-6.2078,-6.2083,-6.2087,-6.2243,-6.2242,-6.2241,-6.224,-6.266,-6.2672,-6.2684,0,0,0,0,0,0,0,0,0,0,0,0,0,0,0,0,0,0,0,0,0,0,0,0,0,0,0,0,0,0,0,0,0,0,0,0,0,0,0,0,0,0,0,0,0,0,0,0,0,0,0,0,0,0,0,0,0,0,0,0,0,0,0,0,0,0,0,0,0]}],[{"header":{"parameterUnit":"kt","parameterCategory":2,"dx":1,"dy":1,"la1":30.253999710083008,"la2":30.299108505249023,"lo1":-89.0895004272461,"lo2":-89.04439544677734,"nx":28,"ny":28,"refTime":"2022-10-22T21:00:00:Z","depth":0,"parameterNumber":2,"parameterNumberName":"V-component_of_WINDS"},"data":[8.3507,8.3618,8.3667,8.3818,8.3887,8.3999,8.4054,8.4132,8.4206,8.4348,8.4439,8.4499,8.4593,8.4714,8.4816,8.4841,8.4881,8.4889,8.4917,8.4837,8.4829,8.4821,8.4797,8.4897,8.4897,8.4993,8.4994,8.4995,8.3458,8.3527,8.3619,8.374,8.3821,8.3845,8.3943,8.401,8.4109,8.42,8.4289,8.4418,8.4525,8.4617,8.4729,8.4786,8.4803,8.4813,8.4809,8.4824,8.4741,8.4714,8.4799,8.4799,8.4799,8.4799,8.4799,8.4798,8.3381,8.3445,8.3544,8.3644,8.3718,8.38,8.3869,8.394,8.403,8.4149,8.4187,8.43,8.44,8.4555,8.4618,8.471,8.4706,8.4732,8.4738,8.4744,8.4746,8.4608,8.4731,8.473,8.473,8.473,8.473,0,8.3339,8.3374,8.3462,8.3567,8.3642,8.3727,8.3812,8.3856,8.3943,8.4014,8.4121,8.4191,8.4329,8.4436,8.4549,8.4609,8.4638,8.4644,8.4663,8.4646,8.4621,8.4639,8.4503,8.4639,8.4638,8.4638,8.4638,8.4637,8.3267,8.3333,8.3456,8.3513,8.3569,8.3659,8.3722,8.3792,8.3856,8.3971,8.4024,8.4131,8.4219,8.4383,8.4462,8.4565,8.4579,8.4628,8.4594,8.458,8.4583,8.4579,8.4588,8.4631,8.4632,8.4632,8.4633,0,8.3223,8.3295,8.341,8.3524,8.3556,8.3622,8.3721,8.3786,8.3844,8.3943,8.3971,8.4061,8.4164,8.4235,8.4365,8.4399,8.4519,8.4529,8.4488,8.4494,8.4546,8.4541,8.4696,8.4722,8.4618,8.4618,8.4619,0,8.3189,8.3271,8.3374,8.3437,8.3534,8.3599,8.3694,8.3751,8.3833,8.3911,8.3953,8.4025,8.4102,8.4187,8.4237,8.4346,8.4369,8.4402,8.4414,8.4398,8.4394,8.4431,8.4426,8.4435,8.4434,8.4433,8.4433,0,8.3112,8.326,8.3363,8.3408,8.3534,8.3581,8.3636,8.3725,8.3784,8.3873,8.3913,8.401,8.4063,8.4141,8.4202,8.4178,8.4336,8.4315,8.437,8.4368,8.4398,8.4395,8.4518,8.4431,8.4431,8.4431,8.4431,0,8.3093,8.3178,8.3314,8.3421,8.3457,8.3523,8.3623,8.3695,8.3786,8.3821,8.389,8.3923,8.402,8.3996,8.4133,8.4084,8.4136,8.4175,8.418,8.4191,8.416,8.4221,8.433,8.4345,8.4207,8.4205,8.4204,0,8.2988,8.3141,8.3196,8.3323,8.3403,8.3444,8.352,8.3596,8.3647,8.3725,8.3782,8.3868,8.3863,8.3899,8.3958,8.402,8.4084,8.4013,8.4128,8.4132,8.4104,8.4206,8.4204,8.4299,8.418,8.4183,8.4185,0,8.2913,8.3059,8.3077,8.3132,8.3239,8.3304,8.339,8.3488,8.3536,8.3615,8.369,8.381,8.3813,8.387,8.3904,8.3962,8.4043,8.3955,8.3958,8.3971,8.4172,8.4172,8.4187,8.4055,8.4058,8.406,8.4166,0,8.2875,8.2957,8.3008,8.3117,8.3178,8.3257,8.3324,8.338,8.3408,8.3457,8.3567,8.3642,8.3739,8.3771,8.3796,8.3904,8.3896,8.3895,8.3873,8.3938,8.3975,8.399,8.3814,8.3813,8.3813,8.3813,0,0,8.2757,8.2874,8.2925,8.3007,8.3061,8.3096,8.3176,8.3232,8.3341,8.3379,8.3368,8.3545,8.3604,8.373,8.3755,8.3793,8.3819,8.379,8.3906,8.3916,8.3926,8.3964,8.3978,8.3813,8.3813,8.3812,8.3812,0,8.2755,8.2813,8.2889,8.295,8.3039,8.3086,8.3105,8.3198,8.3232,8.3336,8.3361,8.3434,8.3568,8.3631,8.368,8.3779,8.3792,8.3803,8.3836,8.3901,8.3912,8.3921,8.396,8.3973,8.3812,8.3812,8.3812,0,8.2695,8.2763,8.2805,8.2923,8.298,8.3058,8.3053,8.3132,8.3191,8.322,8.332,8.337,8.3455,8.3561,8.3611,8.3602,8.3765,8.3722,8.3725,8.3731,8.3798,8.381,8.3821,8.3676,8.3675,8.3674,0,0,8.2684,8.2757,8.2847,8.2926,8.2962,8.3029,8.3075,8.3105,8.3179,8.3208,8.3269,8.3341,8.3422,8.3473,8.355,8.3657,8.3681,8.3702,8.3709,8.3714,8.3722,8.379,8.3803,8.3672,8.3672,8.3671,0,0,8.2677,8.2785,8.2798,8.2897,8.2968,8.306,8.3107,8.3125,8.32,8.3197,8.325,8.3271,8.3371,8.3416,8.3372,8.3543,8.352,8.3531,8.3509,8.3518,8.3524,8.351,8.3373,0,0,0,0,0,8.2706,8.2773,8.2783,8.2809,8.2953,8.3055,8.3074,8.3119,8.3104,8.3141,8.3196,8.3205,8.3405,8.3368,8.3393,8.3439,8.3636,8.3642,8.3648,8.3645,8.3653,8.3661,0,0,0,0,0,0,8.2716,8.2747,8.2782,8.2876,8.2909,8.3053,8.3037,8.3052,8.3101,8.3102,8.3194,8.3208,8.3248,8.3358,8.338,8.3423,8.3366,8.3638,8.3644,8.3649,8.3648,8.3655,8.3661,0,0,0,0,0,8.2725,8.275,8.2969,8.2875,8.2904,8.298,8.3035,8.3047,8.3085,8.3167,8.3181,8.3115,8.3247,8.3269,8.3371,8.3412,8.3351,8.3359,8.3642,8.3646,8.365,8.3651,0,0,0,0,0,0,8.2731,8.2762,8.2976,8.2987,8.2851,8.2973,8.2993,8.3042,8.3149,8.3163,8.3089,8.3088,8.3248,8.3265,8.3281,8.3406,8.3339,8.3347,8.3352,8.3645,8.3648,8.3651,0,0,0,0,0,0,8.2749,8.277,8.2982,8.2949,8.2956,8.2966,8.2984,8.3075,8.3149,8.3065,8.3068,8.3087,8.3224,8.3262,8.3275,8.3415,8.3329,8.3337,8.3343,8.3346,8.3648,8.365,0,0,0,0,0,0,8.2759,8.2778,8.2946,8.2952,8.2958,8.3079,8.3047,8.3193,8.3121,8.306,8.3116,8.3114,8.3221,8.3235,8.3271,8.3405,8.3413,8.333,8.3335,8.3339,8.3341,0,0,0,0,0,0,0,8.2767,8.263,8.2914,8.2954,8.296,8.3084,8.3087,8.309,8.3121,8.3119,8.3117,8.3115,8.3285,8.3293,8.3302,8.3397,0,0,8.3329,8.3333,0,0,0,0,0,0,0,0,8.2623,8.2628,8.2914,8.2916,8.2919,8.3084,8.3087,8.3089,8.3121,8.3119,8.3117,8.3116,8.3287,8.3294,8.3301,0,0,0,0,0,0,0,0,0,0,0,0,0,0,0,8.2915,8.2916,0,8.3085,8.3087,8.3088,8.312,8.3119,8.3118,8.3116,8.3289,8.3295,8.3301,0,0,0,0,0,0,0,0,0,0,0,0,0,0,0,0,0,0,0,0,0,0,0,0,0,0,0,0,0,0,0,0,0,0,0,0,0,0,0,0,0,0,0,0,0,0,0,0,0,0,0,0,0,0,0,0,0,0,0,0,0,0,0,0,0,0,0,0,0]}]]]